Location: Lane
(33.5226°N, 79.8788°W)
Time: 08:00:47
(UTC+00:00)

Tiros 1 despin weight - Pass Details

Date: 04 October 2022
Orbit: 590 x 637 km, 48.2° (Epoch: 28 November)

Event Time Altitude Azimuth Distance (km) Brightness Sun altitude
Rises 04:29:38 0° 294° (WNW) 2,914 - -59.4°
Reaches altitude 10° 04:32:22 10° 279° (W) 2,010 - -59.6°
Maximum altitude 04:35:54 22° 229° (SW) 1,390 - -59.8°
Drops below altitude 10° 04:39:27 10° 179° (S) 2,012 - -60.0°
Sets 04:42:12 0° 164° (SSE) 2,918 - -60.2°
